Regional Weather Roundup
Issued by NWS

Home | Current Version | Previous Version | Text Only | Print | Product List | Glossary Off
Versions: 1 2 3 4 5 6 7 8 9 10 11 12 13 14 15 16 17 18 19 20 21 22 23 24 25 26 27 28 29 30 31 32 33 34 35 36 37 38 39 40 41 42 43 44 45 46 47 48 49 50

000
ASUS43 KOAX 250510
RWRNE

WEATHER ROUNDUP FOR NEBRASKA
NATIONAL WEATHER SERVICE OMAHA NE
1200 AM CDT FRI APR 25 2014

NOTES: SATELLITE DATA IS BEING USED TO AUGMENT CLOUD COVER ABOVE
       12000 FEET.
       "FAIR" INDICATES FEW OR NO CLOUDS BELOW 12,000 FEET WITH NO
       SIGNIFICANT WEATHER AND/OR OBSTRUCTIONS TO VISIBILITY.

  * THESE STATIONS DO NOT REPORT WEATHER SUCH AS RAIN...SNOW OR FOG.

NEZ001>004-019>022-054>056-250600-
NEBRASKA PANHANDLE

CITY           SKY/WX    TMP DP  RH WIND       PRES   REMARKS
SCOTTSBLUFF    CLOUDY    61  25  25 W20G25    29.82S
ALLIANCE       CLOUDY    49  24  37 S12       29.81S
CHADRON        CLOUDY    54  33  45 N5        29.77R
KIMBALL        CLOUDY    48  20  33 SW9       29.87S
SIDNEY         PTCLDY    45  23  42 SW12      29.87S
$$

NEZ057>060-069>072-079>082-250600-
SOUTHWEST NEBRASKA

CITY           SKY/WX    TMP DP  RH WIND       PRES   REMARKS
NORTH PLATTE   MOCLDY    42  24  49 CALM      29.84S
IMPERIAL       CLEAR     45  23  42 SW7       29.87F
LEXINGTON      CLEAR     44  25  48 CALM      29.84F
MCCOOK         CLEAR     51  21  30 W3        29.87S
OGALLALA       PTCLDY    40  19  41 CALM      29.84F
$$

NEZ005>010-023>029-035>040-094-250600-
NORTH CENTRAL NEBRASKA

CITY           SKY/WX    TMP DP  RH WIND       PRES   REMARKS
VALENTINE      MOCLDY    45  26  47 CALM      29.82S
AINSWORTH      MOCLDY    49  28  43 CALM      29.83S
BROKEN BOW     CLEAR     36  22  56 N5        29.83S WCI  32
O`NEILL        MOCLDY    46  28  48 SW3       29.82S
ORD            PTCLDY    39  30  70 SW5       29.82F
THEDFORD       PTCLDY    46  25  43 CALM      29.83S
$$

NEZ041-046>049-061>064-073>077-083>087-250600-
SOUTH CENTRAL NEBRASKA

CITY           SKY/WX    TMP DP  RH WIND       PRES   REMARKS
GRAND ISLAND   PTCLDY    50  36  58 S3        29.84S
AURORA         CLEAR     54  36  50 S6        29.84S
HASTINGS       CLEAR     54  30  40 S6        29.83F
HEBRON         CLEAR     44  38  79 CALM      29.85S
HOLDREGE       CLEAR     53  26  35 SW8       29.85S
KEARNEY *      CLEAR     52  32  46 CALM      29.84F
YORK           CLEAR     46  39  76 CALM      29.84S
$$

NEZ011>018-030>034-042>045-250600-
NORTHEAST NEBRASKA

CITY           SKY/WX    TMP DP  RH WIND       PRES   REMARKS
NORFOLK        CLEAR     48  34  58 W6        29.81R
ALBION         CLEAR     44  36  73 CALM      29.83S
BLAIR          CLEAR     50  41  71 S3        29.81S
COLUMBUS *     CLEAR     45  36  70 CALM      29.83S
FREMONT        CLEAR     48  42  82 CALM      29.81S
TEKAMAH        CLEAR     47  39  74 S8        29.80S
$$

NEZ050>053-065>068-078-088>093-250600-
SOUTHEAST NEBRASKA

CITY           SKY/WX    TMP DP  RH WIND       PRES   REMARKS
LINCOLN        CLEAR     48  38  68 S3        29.84R
OMAHA EPPLEY   CLEAR     50  42  74 SE6       29.82R
BEATRICE       CLEAR     47  36  67 CALM      29.84S
FALLS CITY     CLEAR     50  44  80 S3        29.83S
NEBRASKA CITY  CLEAR     48  43  84 SW6       29.83S
PLATTSMOUTH    CLEAR     50  43  77 S7        29.82S
$$

NEZ044-045-051>053-067-250600-
OMAHA AREA

CITY           SKY/WX    TMP DP  RH WIND       PRES   REMARKS
OMAHA EPPLEY   CLEAR     50  42  74 SE6       29.82R
BLAIR          CLEAR     50  41  71 S3        29.81S
FREMONT        CLEAR     48  42  82 CALM      29.81S
MILLARD        CLEAR     47  42  80 CALM      29.82R
OFFUTT AFB     CLEAR     48  47  95 S3        29.82R
PLATTSMOUTH    CLEAR     50  43  77 S7        29.82S
WAHOO          FAIR      47  38  70 S3        29.81S
$$



USA.gov is the U.S. government's official web portal to all federal, state and local government web resources and services.